Regional Weather Roundup
Issued by NWS

Home | Current Version | Previous Version | Text Only | Print | Product List | Glossary On
Versions: 1 2 3 4 5 6 7 8 9 10 11 12 13 14 15 16 17 18 19 20 21 22 23 24 25 26 27 28 29 30 31 32 33 34 35 36 37 38 39 40 41 42 43 44 45 46 47 48 49 50
000
ASUS43 KBIS 222002
RWRND

NORTH DAKOTA REGIONAL WEATHER ROUNDUP
NATIONAL WEATHER SERVICE BISMARCK ND
300 PM CDT SUN APR 22 2018

NOTE: "FAIR" INDICATES FEW OR NO CLOUDS BELOW 12,000 FEET WITH NO
SIGNIFICANT WEATHER AND/OR OBSTRUCTIONS TO VISIBILITY.


NDZ001>003-009>011-017-222100-
NORTHWEST NORTH DAKOTA

CITY           SKY/WX    TMP DP  RH WIND       PRES   REMARKS
WILLISTON      MOSUNNY   64  28  25 VRB7      30.11F
MINOT          CLOUDY    62  27  26 W12       30.10F
$$

NDZ018>021-031>035-040>046-222100-
SOUTHWEST NORTH DAKOTA

CITY           SKY/WX    TMP DP  RH WIND       PRES   REMARKS
BISMARCK       SUNNY     68  40  35 S10       30.10F
DICKINSON      MOSUNNY   66  21  18 N6        30.09F
GARRISON         N/A     59  37  44 CALM      30.11F
HETTINGER ARPT SUNNY     66  33  29 MISG      30.10F
$$

NDZ004>008-012>016-024-026-027-054-222100-
NORTHEAST NORTH DAKOTA

CITY           SKY/WX    TMP DP  RH WIND       PRES   REMARKS
GRAND FORKS    PTSUNNY   59  44  57 SW23      30.16F
GRND FRKS AFB  FAIR      62  42  48 S18G24    30.15F
DEVILS LAKE    PTSUNNY   60  41  49 W12       30.13F
$$

NDZ022-023-025-028>030-036>039-047>053-222100-
SOUTHEAST NORTH DAKOTA

CITY           SKY/WX    TMP DP  RH WIND       PRES   REMARKS
FARGO          FAIR      64  40  41 S16G24    30.19F
JAMESTOWN      SUNNY     63  38  39 S17G28    30.15F
$$





USA.gov is the U.S. government's official web portal to all federal, state and local government web resources and services.